Regional Weather Roundup
Issued by NWS Sioux Falls, SD

Home | Current Version | Previous Version | Graphics & Text | Print | Product List | Glossary Off
Versions: 1 2 3 4 5 6 7 8 9 10 11 12 13 14 15 16 17 18 19 20 21 22 23 24 25 26 27 28 29 30 31 32 33 34 35 36 37 38 39 40 41 42 43 44 45 46 47 48 49 50

000
ASUS43 KFSD 310910
RWRFSD

WEATHER ROUNDUP FOR SE SOUTH DAKOTA/SW MINNESOTA/NW IOWA
NATIONAL WEATHER SERVICE SIOUX FALLS SD
400 AM CDT WED AUG 31 2016

NOTE: "FAIR" INDICATES FEW OR NO CLOUDS BELOW 12,000 FEET WITH NO
SIGNIFICANT WEATHER AND OR OBSTRUCTIONS TO VISIBILITY.


SDZ038>040-050-052>070-311000-
SOUTHEAST SOUTH DAKOTA

CITY           SKY/WX    TMP DP  RH WIND       PRES   REMARKS
BROOKINGS      CLEAR     57  55  93 CALM      30.22S
CHAMBERLAIN    CLEAR     66  66 100 SE5       30.19S
HURON          MOCLDY    67  60  78 SE7       30.19F
MADISON        FAIR      55  55 100 E6        30.23S
MITCHELL       CLOUDY    65  63  93 CALM      30.20S
SIOUX FALLS    CLEAR     58  57  97 CALM      30.22S
WINNER         FAIR      70  65  84 S9        30.20S
YANKTON        PTCLDY    63  61  94 NE5       30.19S
$$

MNZ071-072-080-081-089-090-097-098-311000-
SOUTHWEST MINNESOTA

CITY           SKY/WX    TMP DP  RH WIND       PRES   REMARKS
FAIRMONT       CLEAR     56  55  97 NW3       30.21S
JACKSON        CLEAR     55  54  94 NW3       30.22S FOG
LUVERNE        CLEAR     55  54  94 CALM      30.23S
MARSHALL       CLEAR     56  54  93 W3        30.22S
MONTEVIDEO     CLEAR     57  54  88 CALM      30.23S
REDWOOD FALLS  PTCLDY    59  56  89 CALM      30.21R
TRACY          CLEAR     60  56  89 CALM      30.22F
WINDOM         CLEAR     57  54  88 CALM      30.22S
WORTHINGTON    CLEAR     56  54  93 N3        30.23S
$$

IAZ001>003-012>014-020>022-031-032-NEZ013-014-SDZ071-311000-
NORTHWEST IOWA

CITY           SKY/WX    TMP DP  RH WIND       PRES   REMARKS
CHEROKEE       FOG       60  60 100 NE5       30.20S VSB 1/2
DENISON        FOG       63  63 100 CALM      30.17S VSB<1/4
ESTHERVILLE    CLEAR     55  55 100 N3        30.21R
LE MARS        PTCLDY    59  59 100 CALM      30.21S FOG
ORANGE CITY    PTCLDY    64  63  94 CALM      30.21S
SHELDON        CLEAR     54  54 100 CALM      30.20S
SIOUX CITY     PTCLDY    68  64  87 E5        30.19S
SPENCER        CLEAR     55  53  93 N3        30.21S
STORM LAKE     PTCLDY    63  61  94 NE7       30.21S
$$

ABBREVIATIONS USED IN REMARKS
   TC - TEMPERATURE IN CELSIUS
  WCI - WIND CHILL INDEX
   HX - HEAT INDEX
  VSB - VISIBILITY




USA.gov is the U.S. government's official web portal to all federal, state and local government web resources and services.